| time (UTC) | temp C | wind direction | speed KPH | gust KPH | rain 1hr cm | rain 24hr cm | rain mn cm | humidity % | barometer mb |
| 20260505062304 | 26 | 140 | 8.0 | 0.0 | 0.00 | 0.00 | 0.00 | 78 | 1015.0 |
| 20260505061302 | 26 | 140 | 8.0 | 0.0 | 0.00 | 0.00 | 0.00 | 78 | 1015.0 |
| 20260505060301 | 21 | 150 | 12.9 | 0.0 | 0.00 | 0.00 | 0.00 | 78 | 1015.0 |
| 20260505055300 | 22 | 150 | 12.9 | 0.0 | 0.00 | 0.00 | 0.00 | 78 | 1015.0 |
| 20260505054258 | 22 | 150 | 12.9 | 0.0 | 0.00 | 0.00 | 0.00 | 78 | 1015.0 |
| 20260505053257 | 23 | 150 | 12.9 | 0.0 | 0.00 | 0.00 | 0.00 | 78 | 1016.0 |
| 20260505052255 | 23 | 150 | 12.9 | 0.0 | 0.00 | 0.00 | 0.00 | 78 | 1016.0 |
| 20260505051253 | 24 | 150 | 12.9 | 0.0 | 0.00 | 0.00 | 0.00 | 78 | 1016.0 |
| 20260505050250 | 25 | 150 | 12.9 | 0.0 | 0.00 | 0.00 | 0.00 | 78 | 1016.0 |
| 20260505041239 | 22 | 150 | 12.9 | 0.0 | 0.00 | 0.00 | 0.00 | 78 | 1016.0 |
| 20260505040236 | 23 | 160 | 8.0 | 0.0 | 0.00 | 0.00 | 0.00 | 78 | 1016.0 |
| 20260505035234 | 23 | 160 | 8.0 | 0.0 | 0.00 | 0.00 | 0.00 | 78 | 1016.0 |
| 20260505034232 | 24 | 160 | 8.0 | 0.0 | 0.00 | 0.00 | 0.00 | 78 | 1016.0 |
| 20260505033231 | 25 | 160 | 8.0 | 0.0 | 0.00 | 0.00 | 0.00 | 78 | 1016.0 |
| 20260505032229 | 25 | 160 | 8.0 | 0.0 | 0.00 | 0.00 | 0.00 | 78 | 1016.0 |
| 20260505031226 | 26 | 160 | 8.0 | 0.0 | 0.00 | 0.00 | 0.00 | 78 | 1016.0 |
| 20260505030224 | 26 | 0 | 0.0 | 0.0 | 0.00 | 0.00 | 0.00 | 78 | 1016.0 |
| 20260505025222 | 22 | 160 | 12.9 | 0.0 | 0.00 | 0.00 | 0.00 | 78 | 1016.0 |
| 20260505024221 | 22 | 160 | 12.9 | 0.0 | 0.00 | 0.00 | 0.00 | 78 | 1016.0 |
| 20260505023220 | 23 | 160 | 12.9 | 0.0 | 0.00 | 0.00 | 0.00 | 78 | 1016.0 |
| 20260505022218 | 23 | 160 | 12.9 | 0.0 | 0.00 | 0.00 | 0.00 | 78 | 1016.0 |
| 20260505021217 | 24 | 160 | 12.9 | 0.0 | 0.00 | 0.00 | 0.00 | 78 | 1016.0 |
| 20260505020215 | 25 | 160 | 12.9 | 0.0 | 0.00 | 0.00 | 0.00 | 78 | 1016.0 |
| 20260505015214 | 25 | 160 | 12.9 | 0.0 | 0.00 | 0.00 | 0.00 | 78 | 1016.0 |
| 20260505014213 | 26 | 160 | 12.9 | 0.0 | 0.00 | 0.00 | 0.00 | 78 | 1016.0 |
| 20260505013211 | 26 | 160 | 12.9 | 0.0 | 0.00 | 0.00 | 0.00 | 78 | 1016.0 |
| 20260505012210 | 22 | 160 | 12.9 | 0.0 | 0.00 | 0.00 | 0.00 | 69 | 1015.0 |
| 20260505011207 | 22 | 160 | 12.9 | 0.0 | 0.00 | 0.00 | 0.00 | 69 | 1015.0 |
| 20260505010205 | 23 | 180 | 12.9 | 0.0 | 0.00 | 0.00 | 0.00 | 69 | 1015.0 |
| 20260505005202 | 23 | 180 | 12.9 | 0.0 | 0.00 | 0.00 | 0.00 | 69 | 1015.0 |
| 20260505004201 | 24 | 180 | 12.9 | 0.0 | 0.00 | 0.00 | 0.00 | 69 | 1015.0 |
| 20260505003159 | 25 | 180 | 12.9 | 0.0 | 0.00 | 0.00 | 0.00 | 69 | 1015.0 |
| 20260505002156 | 25 | 180 | 12.9 | 0.0 | 0.00 | 0.00 | 0.00 | 69 | 1015.0 |
| 20260505001155 | 26 | 160 | 12.9 | 0.0 | 0.00 | 0.00 | 0.00 | 69 | 1015.0 |
| 20260505000153 | 26 | 160 | 14.5 | 0.0 | 0.00 | 0.00 | 0.00 | 69 | 1015.0 |
| 20260504235152 | 27 | 160 | 14.5 | 0.0 | 0.00 | 0.00 | 0.00 | 69 | 1015.0 |
| 20260504234151 | 27 | 160 | 14.5 | 0.0 | 0.00 | 0.00 | 0.00 | 69 | 1015.0 |
| 20260504233149 | 22 | 170 | 22.5 | 0.0 | 0.00 | 0.00 | 0.00 | 70 | 1015.0 |
| 20260504232148 | 23 | 170 | 22.5 | 0.0 | 0.00 | 0.00 | 0.00 | 70 | 1015.0 |
| 20260504231145 | 23 | 170 | 22.5 | 0.0 | 0.00 | 0.00 | 0.00 | 70 | 1014.0 |
| 20260504230144 | 24 | 170 | 22.5 | 0.0 | 0.00 | 0.00 | 0.00 | 70 | 1014.0 |
| 20260504225142 | 25 | 170 | 22.5 | 0.0 | 0.00 | 0.00 | 0.00 | 70 | 1014.0 |
| 20260504224140 | 25 | 170 | 22.5 | 0.0 | 0.00 | 0.00 | 0.00 | 70 | 1014.0 |
| 20260504223137 | 26 | 170 | 22.5 | 0.0 | 0.00 | 0.00 | 0.00 | 70 | 1014.0 |
| 20260504222136 | 26 | 170 | 22.5 | 0.0 | 0.00 | 0.00 | 0.00 | 70 | 1014.0 |
| 20260504221135 | 27 | 170 | 22.5 | 0.0 | 0.00 | 0.00 | 0.00 | 70 | 1014.0 |
| 20260504220133 | 27 | 170 | 22.5 | 0.0 | 0.00 | 0.00 | 0.00 | 70 | 1014.0 |
| 20260504215131 | 28 | 170 | 22.5 | 0.0 | 0.00 | 0.00 | 0.00 | 70 | 1014.0 |
| 20260504214130 | 24 | 170 | 22.5 | 0.0 | 0.00 | 0.00 | 0.00 | 62 | 1014.0 |
| 20260504213129 | 25 | 170 | 22.5 | 0.0 | 0.00 | 0.00 | 0.00 | 62 | 1014.0 |
| 20260504212127 | 25 | 170 | 22.5 | 0.0 | 0.00 | 0.00 | 0.00 | 62 | 1014.0 |
| 20260504211114 | 26 | 170 | 22.5 | 0.0 | 0.00 | 0.00 | 0.00 | 62 | 1014.0 |
| 20260504210113 | 26 | 170 | 22.5 | 0.0 | 0.00 | 0.00 | 0.00 | 62 | 1013.0 |
| 20260504205106 | 27 | 160 | 17.7 | 0.0 | 0.00 | 0.00 | 0.00 | 62 | 1013.0 |
| 20260504204105 | 27 | 160 | 17.7 | 0.0 | 0.00 | 0.00 | 0.00 | 62 | 1013.0 |
| 20260504203103 | 28 | 160 | 17.7 | 0.0 | 0.00 | 0.00 | 0.00 | 62 | 1013.0 |
| 20260504202100 | 28 | 160 | 17.7 | 0.0 | 0.00 | 0.00 | 0.00 | 62 | 1014.0 |
| 20260504201059 | 29 | 160 | 17.7 | 0.0 | 0.00 | 0.00 | 0.00 | 62 | 1014.0 |
| 20260504200058 | 25 | 160 | 22.5 | 0.0 | 0.00 | 0.00 | 0.00 | 66 | 1014.0 |
| 20260504195056 | 26 | 160 | 22.5 | 0.0 | 0.00 | 0.00 | 0.00 | 66 | 1014.0 |
| 20260504194055 | 26 | 160 | 22.5 | 0.0 | 0.00 | 0.00 | 0.00 | 66 | 1014.0 |
| 20260504193053 | 27 | 160 | 22.5 | 0.0 | 0.00 | 0.00 | 0.00 | 66 | 1014.0 |
| 20260504192052 | 27 | 160 | 22.5 | 0.0 | 0.00 | 0.00 | 0.00 | 66 | 1014.0 |
| 20260504191051 | 28 | 160 | 22.5 | 0.0 | 0.00 | 0.00 | 0.00 | 66 | 1015.0 |
| 20260504190049 | 28 | 150 | 20.9 | 0.0 | 0.00 | 0.00 | 0.00 | 66 | 1015.0 |
| 20260504185048 | 29 | 150 | 20.9 | 0.0 | 0.00 | 0.00 | 0.00 | 66 | 1015.0 |
| 20260504184046 | 25 | 150 | 20.9 | 0.0 | 0.00 | 0.00 | 0.00 | 66 | 1015.0 |
| 20260504183044 | 26 | 150 | 20.9 | 0.0 | 0.00 | 0.00 | 0.00 | 66 | 1015.0 |
| 20260504182042 | 26 | 150 | 20.9 | 0.0 | 0.00 | 0.00 | 0.00 | 66 | 1015.0 |
| 20260504181040 | 27 | 150 | 20.9 | 0.0 | 0.00 | 0.00 | 0.00 | 66 | 1015.0 |
| 20260504180039 | 27 | 120 | 20.9 | 0.0 | 0.00 | 0.00 | 0.00 | 66 | 1015.0 |
| 20260504175038 | 28 | 120 | 20.9 | 0.0 | 0.00 | 0.00 | 0.00 | 66 | 1015.0 |
| 20260504174035 | 28 | 120 | 20.9 | 0.0 | 0.00 | 0.00 | 0.00 | 66 | 1015.0 |
| 20260504173034 | 29 | 120 | 20.9 | 0.0 | 0.00 | 0.00 | 0.00 | 66 | 1015.0 |
| 20260504172032 | 25 | 120 | 20.9 | 0.0 | 0.00 | 0.00 | 0.00 | 66 | 1016.0 |
| 20260504171031 | 26 | 120 | 20.9 | 0.0 | 0.00 | 0.00 | 0.00 | 66 | 1016.0 |
| 20260504151012 | 28 | 130 | 17.7 | 0.0 | 0.00 | 0.00 | 0.00 | 65 | 1016.0 |
| 20260504141001 | 26 | 130 | 20.9 | 0.0 | 0.00 | 0.00 | 0.00 | 69 | 1016.0 |
| 20260504081909 | 22 | 0 | 0.0 | 0.0 | 0.00 | 0.00 | 0.00 | 94 | 1015.0 |
| 20260504080908 | 21 | 0 | 0.0 | 0.0 | 0.00 | 0.00 | 0.00 | 88 | 1015.0 |